Location: Vancouver
(49.2500°N, 123.1330°W)
Time: 02:23:02
(UTC-07:00)

YAOGAN 6 - Visible Passes

Search period start: 29 March 2015 00:00
Search period end: 08 April 2015 00:00
Orbit: 478 x 519 km, 97.3° (Epoch: 28 March)

Date Brightness Start Highest point End Pass type
(mag) Time Alt. Az. Time Alt. Az. Time Alt. Az.
29 Mar 4.8 21:36:58 14° NE 21:36:58 14° NE 21:38:23 10° NNE visible
29 Mar 5.0 23:11:37 23° NNW 23:11:37 23° NNW 23:13:09 10° NNW visible
30 Mar 4.5 22:51:07 29° NNW 22:51:07 29° NNW 22:53:01 10° NNW visible
31 Mar 4.2 22:30:36 30° NNE 22:30:36 30° NNE 22:32:45 10° N visible
01 Apr 5.9 00:05:13 10° NW 00:05:13 10° NW 00:05:14 10° NW visible
01 Apr 4.2 22:10:05 26° NE 22:10:05 26° NE 22:12:20 10° N visible
01 Apr 5.5 23:44:42 16° NW 23:44:42 16° NW 23:45:48 10° NW visible
02 Apr 4.5 21:49:33 19° NE 21:49:33 19° NE 21:51:44 10° NNE visible
02 Apr 5.0 23:24:12 23° NW 23:24:12 23° NW 23:25:57 10° NNW visible
03 Apr 4.8 21:29:02 13° ENE 21:29:02 13° ENE 21:30:47 10° NNE visible
03 Apr 4.4 23:03:40 33° NNW 23:03:40 33° NNW 23:05:53 10° NNW visible
04 Apr 3.8 22:43:08 40° N 22:43:08 40° N 22:45:40 10° N visible
05 Apr 3.7 22:22:35 36° NE 22:22:35 36° NE 22:25:19 10° N visible
05 Apr 5.6 23:57:13 14° WNW 23:57:13 14° WNW 23:58:12 10° NW visible
06 Apr 4.0 22:02:02 26° NE 22:02:02 26° NE 22:04:48 10° N visible
06 Apr 5.0 23:36:39 21° WNW 23:36:39 21° WNW 23:38:31 10° NW visible
07 Apr 4.5 21:41:28 18° ENE 21:41:28 18° ENE 21:44:04 10° NNE visible
07 Apr 4.3 23:16:07 33° NW 23:16:07 33° NW 23:18:32 10° NNW visible
